Location: Unspecified
(0.0000°N, 0.0000°E)
Time: 20:36:03
(UTC+00:00)

ARIANE 1 DEB - Pass Details

Date: 15 February 2026
Orbit: 376 x 19604 km, 19.8° (Epoch: 20 January)

Event Time Altitude Azimuth Distance (km) Brightness Sun altitude
Rises 21:47:20 0° 288° (WNW) 14,618 ? -51.5°
Reaches altitude 10° 22:06:48 10° 284° (WNW) 9,285 ? -56.1°
Enters shadow 22:23:24 34° 267° (W) 3,275 ? -59.9°
